WMT3502 LIPZ-EPKK

Flight info

Callsign WMT3502
Flight time 1h 10m
Altitude 34000
Route ROSKA M859 BARPI DCT LAPNA DCT GOLVA DCT ABLOM DCT MOMEP M985 MEBAN
Aircraft A21N/M-SDE1E2E3FGIJ1J4RWXY/LB1

Departure

Time 2026-05-05 17:02
Airport Venice Marco Polo Airport (LIPZ)

Arrival

Time 2026-05-05 18:12
Airport Kraków John Paul II International Airport (EPKK)
Time Latitude Longitude Altitude Speed Heading
2026-05-05 16:33 45.50106 12.34003 9 ft 0 kts 312°
2026-05-05 16:51 45.50106 12.34004 9 ft 0 kts 312°
2026-05-05 16:52 45.50099 12.34015 9 ft 2 kts 312°
2026-05-05 16:53 45.50092 12.34026 9 ft 2 kts 308°
2026-05-05 16:53 45.50085 12.34045 9 ft 2 kts 281°
2026-05-05 16:53 45.50085 12.34067 9 ft 2 kts 261°
2026-05-05 16:53 45.50089 12.34087 9 ft 2 kts 240°
2026-05-05 16:54 45.50096 12.34101 9 ft 0 kts 224°
2026-05-05 16:54 45.50102 12.34108 9 ft 0 kts 221°
2026-05-05 16:56 45.50100 12.34107 9 ft 0 kts 221°
2026-05-05 16:56 45.50095 12.34099 9 ft 1 kts 221°
2026-05-05 16:57 45.50075 12.34075 9 ft 4 kts 220°
2026-05-05 16:57 45.50044 12.34059 9 ft 5 kts 181°
2026-05-05 16:57 45.50006 12.34059 9 ft 5 kts 179°
2026-05-05 16:57 45.49963 12.34062 9 ft 6 kts 176°
2026-05-05 16:58 45.49916 12.34059 9 ft 7 kts 197°
2026-05-05 16:58 45.49873 12.34016 9 ft 7 kts 221°
2026-05-05 16:58 45.49831 12.33962 9 ft 8 kts 221°
2026-05-05 16:58 45.49786 12.33904 9 ft 9 kts 221°
2026-05-05 16:59 45.49737 12.33841 9 ft 9 kts 222°
2026-05-05 16:59 45.49681 12.33782 9 ft 10 kts 201°
2026-05-05 16:59 45.49609 12.33759 9 ft 9 kts 191°
2026-05-05 16:59 45.49589 12.33753 9 ft 0 kts 191°
2026-05-05 17:00 45.49585 12.33752 9 ft 1 kts 191°
2026-05-05 17:00 45.49561 12.33745 9 ft 4 kts 191°
2026-05-05 17:01 45.49529 12.33737 9 ft 5 kts 186°
2026-05-05 17:01 45.49491 12.33745 9 ft 5 kts 154°
2026-05-05 17:01 45.49462 12.33787 9 ft 6 kts 122°
2026-05-05 17:01 45.49471 12.33844 9 ft 6 kts 43°
2026-05-05 17:02 45.49570 12.33971 9 ft 49 kts 41°
2026-05-05 17:02 45.50005 12.34527 9 ft 117 kts 42°
2026-05-05 17:02 45.50750 12.35479 36 ft 167 kts 41°
2026-05-05 17:02 45.51600 12.36601 641 ft 168 kts 44°
2026-05-05 17:03 45.52433 12.37789 1328 ft 169 kts 44°
2026-05-05 17:03 45.53245 12.38977 1898 ft 174 kts 52°
2026-05-05 17:03 45.53693 12.40645 2262 ft 191 kts 88°
2026-05-05 17:03 45.53377 12.42556 2627 ft 209 kts 120°
2026-05-05 17:04 45.52525 12.44350 2987 ft 231 kts 126°
2026-05-05 17:04 45.51521 12.46284 3465 ft 249 kts 126°
2026-05-05 17:04 45.50477 12.48305 4037 ft 262 kts 126°
2026-05-05 17:04 45.49396 12.50432 4871 ft 265 kts 126°
2026-05-05 17:05 45.48323 12.52569 5694 ft 268 kts 127°
2026-05-05 17:05 45.47255 12.54702 6428 ft 272 kts 127°
2026-05-05 17:05 45.46127 12.56951 7175 ft 277 kts 127°
2026-05-05 17:05 45.45003 12.59196 7931 ft 281 kts 127°
2026-05-05 17:06 45.43882 12.61432 8660 ft 284 kts 128°
2026-05-05 17:06 45.42733 12.63724 9378 ft 287 kts 128°
2026-05-05 17:06 45.41566 12.66052 10046 ft 291 kts 129°
2026-05-05 17:06 45.40365 12.68442 10535 ft 303 kts 130°
2026-05-05 17:07 45.39102 12.70945 10859 ft 319 kts 129°
2026-05-05 17:07 45.37786 12.73556 11378 ft 327 kts 130°
2026-05-05 17:07 45.36447 12.76218 12010 ft 331 kts 130°
2026-05-05 17:07 45.35109 12.78879 12612 ft 336 kts 130°
2026-05-05 17:08 45.33733 12.81630 13252 ft 340 kts 128°
2026-05-05 17:08 45.32760 12.84712 13811 ft 352 kts 104°
2026-05-05 17:08 45.32749 12.88227 14398 ft 360 kts 78°
2026-05-05 17:08 45.33743 12.91444 14995 ft 362 kts 56°
2026-05-05 17:09 45.35180 12.94414 15580 ft 365 kts 53°
2026-05-05 17:09 45.36658 12.97343 16102 ft 369 kts 53°
2026-05-05 17:09 45.38153 13.00332 16653 ft 372 kts 54°
2026-05-05 17:09 45.39654 13.03378 17204 ft 375 kts 54°
2026-05-05 17:10 45.41131 13.06418 17716 ft 378 kts 55°
2026-05-05 17:10 45.42638 13.09544 18232 ft 381 kts 55°
2026-05-05 17:10 45.44131 13.12659 18739 ft 384 kts 55°
2026-05-05 17:10 45.45646 13.15831 19246 ft 386 kts 55°
2026-05-05 17:11 45.47162 13.19014 19772 ft 388 kts 55°
2026-05-05 17:11 45.48681 13.22210 20261 ft 390 kts 55°
2026-05-05 17:11 45.50191 13.25391 20719 ft 393 kts 55°
2026-05-05 17:11 45.51725 13.28623 21190 ft 395 kts 56°
2026-05-05 17:12 45.53268 13.31879 21646 ft 397 kts 56°
2026-05-05 17:12 45.54834 13.35187 22097 ft 399 kts 56°
2026-05-05 17:12 45.56387 13.38472 22545 ft 401 kts 56°
2026-05-05 17:12 45.57949 13.41780 22981 ft 403 kts 56°
2026-05-05 17:13 45.59524 13.45119 23391 ft 405 kts 56°
2026-05-05 17:13 45.61118 13.48501 23818 ft 407 kts 56°
2026-05-05 17:13 45.62683 13.51828 24231 ft 408 kts 56°
2026-05-05 17:13 45.64285 13.55234 24621 ft 410 kts 56°
2026-05-05 17:14 45.65862 13.58594 25005 ft 412 kts 56°
2026-05-05 17:14 45.67485 13.62054 25389 ft 414 kts 56°
2026-05-05 17:14 45.69097 13.65496 25752 ft 416 kts 57°
2026-05-05 17:14 45.70702 13.68925 26101 ft 418 kts 57°
2026-05-05 17:15 45.72342 13.72436 26458 ft 420 kts 57°
2026-05-05 17:15 45.73963 13.75909 26785 ft 422 kts 57°
2026-05-05 17:15 45.75601 13.79422 27117 ft 424 kts 57°
2026-05-05 17:15 45.77248 13.82982 27455 ft 425 kts 58°
2026-05-05 17:16 45.78885 13.86524 27777 ft 427 kts 58°
2026-05-05 17:16 45.80525 13.90073 28094 ft 429 kts 58°
2026-05-05 17:16 45.82183 13.93659 28408 ft 431 kts 58°
2026-05-05 17:16 45.83857 13.97279 28720 ft 433 kts 58°
2026-05-05 17:17 45.85523 14.00885 29026 ft 434 kts 58°
2026-05-05 17:17 45.87202 14.04520 29320 ft 436 kts 58°
2026-05-05 17:17 45.88881 14.08162 29599 ft 438 kts 58°
2026-05-05 17:17 45.90575 14.11840 29887 ft 440 kts 58°
2026-05-05 17:18 45.92269 14.15523 30201 ft 441 kts 58°
2026-05-05 17:18 45.93977 14.19247 30531 ft 442 kts 57°
2026-05-05 17:18 45.95666 14.22936 30857 ft 442 kts 57°
2026-05-05 17:18 45.97344 14.26602 31181 ft 443 kts 57°
2026-05-05 17:19 45.99060 14.30353 31512 ft 443 kts 56°
2026-05-05 17:19 46.00746 14.34040 31837 ft 443 kts 56°
2026-05-05 17:19 46.02440 14.37749 32164 ft 443 kts 56°
2026-05-05 17:19 46.04122 14.41437 32488 ft 443 kts 56°
2026-05-05 17:20 46.05803 14.45128 32813 ft 443 kts 55°
2026-05-05 17:20 46.07483 14.48822 33137 ft 443 kts 55°
2026-05-05 17:20 46.09158 14.52508 33461 ft 442 kts 55°
2026-05-05 17:20 46.10842 14.56219 33788 ft 441 kts 54°
2026-05-05 17:21 46.12523 14.59927 34001 ft 444 kts 54°
2026-05-05 17:21 46.14221 14.63672 34006 ft 452 kts 54°
2026-05-05 17:22 46.19504 14.75367 34009 ft 472 kts 56°
2026-05-05 17:22 46.23100 14.83371 34006 ft 477 kts 56°
2026-05-05 17:23 46.26722 14.91457 34006 ft 477 kts 56°
2026-05-05 17:23 46.30331 14.99534 34006 ft 476 kts 56°
2026-05-05 17:24 46.33931 15.07613 34006 ft 476 kts 57°
2026-05-05 17:24 46.37527 15.15707 34006 ft 476 kts 57°
2026-05-05 17:25 46.41093 15.23756 34006 ft 476 kts 57°
2026-05-05 17:25 46.44671 15.31854 34006 ft 476 kts 57°
2026-05-05 17:26 46.48266 15.40018 34006 ft 475 kts 57°
2026-05-05 17:26 46.51961 15.47987 34005 ft 475 kts 52°
2026-05-05 17:27 46.56231 15.55327 34006 ft 475 kts 45°
2026-05-05 17:27 46.61022 15.61934 34005 ft 474 kts 40°
2026-05-05 17:28 46.65921 15.68299 33984 ft 475 kts 41°
2026-05-05 17:28 46.70879 15.74772 33962 ft 475 kts 41°
2026-05-05 17:29 46.75751 15.81175 33950 ft 475 kts 41°
2026-05-05 17:29 46.80644 15.87632 33939 ft 475 kts 41°
2026-05-05 17:30 46.85548 15.94133 33964 ft 474 kts 41°
2026-05-05 17:30 46.90455 16.00637 33982 ft 474 kts 41°
2026-05-05 17:31 46.95306 16.07081 34151 ft 472 kts 41°
2026-05-05 17:31 46.97728 16.10310 34403 ft 472 kts 41°
2026-05-05 17:31 47.00144 16.13535 34654 ft 472 kts 41°
2026-05-05 17:31 47.02576 16.16786 34905 ft 472 kts 41°
2026-05-05 17:32 47.05035 16.20078 34998 ft 472 kts 41°
2026-05-05 17:32 47.09853 16.26537 35004 ft 472 kts 41°
2026-05-05 17:33 47.14719 16.33078 35006 ft 471 kts 41°
2026-05-05 17:33 47.19531 16.39563 35006 ft 471 kts 41°
2026-05-05 17:34 47.24372 16.46105 35006 ft 471 kts 41°
2026-05-05 17:34 47.29203 16.52651 35006 ft 471 kts 41°
2026-05-05 17:35 47.34038 16.59217 35007 ft 471 kts 41°
2026-05-05 17:35 47.38872 16.65800 35006 ft 470 kts 41°
2026-05-05 17:36 47.43676 16.72361 35006 ft 470 kts 41°
2026-05-05 17:36 47.48488 16.78949 35006 ft 470 kts 41°
2026-05-05 17:37 47.53326 16.85591 35006 ft 470 kts 41°
2026-05-05 17:37 47.58125 16.92195 35006 ft 470 kts 41°
2026-05-05 17:38 47.62944 16.98844 35006 ft 470 kts 41°
2026-05-05 17:38 47.67737 17.05476 35006 ft 470 kts 41°
2026-05-05 17:39 47.72536 17.12133 35007 ft 470 kts 41°
2026-05-05 17:39 47.77361 17.18844 35006 ft 469 kts 41°
2026-05-05 17:40 47.82141 17.25510 35006 ft 469 kts 41°
2026-05-05 17:40 47.86935 17.32214 35006 ft 469 kts 42°
2026-05-05 17:41 47.91653 17.38829 35006 ft 468 kts 42°
2026-05-05 17:41 47.96357 17.45441 35006 ft 468 kts 42°
2026-05-05 17:42 48.01098 17.52123 35006 ft 468 kts 41°
2026-05-05 17:42 48.05859 17.58852 35005 ft 468 kts 41°
2026-05-05 17:43 48.10615 17.65591 35005 ft 468 kts 43°
2026-05-05 17:43 48.15335 17.72298 35005 ft 468 kts 43°
2026-05-05 17:44 48.20084 17.79061 35006 ft 468 kts 43°
2026-05-05 17:44 48.24822 17.85829 35006 ft 468 kts 43°
2026-05-05 17:45 48.29573 17.92634 35006 ft 468 kts 43°
2026-05-05 17:45 48.34304 17.99430 35006 ft 468 kts 43°
2026-05-05 17:46 48.39041 18.06249 35006 ft 468 kts 43°
2026-05-05 17:46 48.43688 18.12960 35006 ft 468 kts 43°
2026-05-05 17:47 48.48409 18.19796 35006 ft 468 kts 43°
2026-05-05 17:47 48.53143 18.26670 35006 ft 468 kts 43°
2026-05-05 17:48 48.57830 18.33494 35006 ft 468 kts 43°
2026-05-05 17:48 48.62545 18.40376 35006 ft 468 kts 43°
2026-05-05 17:49 48.67217 18.47215 35006 ft 468 kts 43°
2026-05-05 17:49 48.71851 18.54015 34762 ft 466 kts 43°
2026-05-05 17:49 48.74178 18.57437 33979 ft 470 kts 43°
2026-05-05 17:50 48.76527 18.60895 32991 ft 477 kts 43°
2026-05-05 17:50 48.78898 18.64390 32168 ft 479 kts 43°
2026-05-05 17:50 48.81263 18.67883 31662 ft 473 kts 43°
2026-05-05 17:50 48.83624 18.71374 31189 ft 467 kts 43°
2026-05-05 17:51 48.85950 18.74819 30668 ft 463 kts 44°
2026-05-05 17:51 48.88249 18.78227 30139 ft 459 kts 44°
2026-05-05 17:51 48.90532 18.81617 29602 ft 455 kts 44°
2026-05-05 17:51 48.92815 18.85012 28954 ft 454 kts 44°
2026-05-05 17:52 48.95079 18.88382 28399 ft 451 kts 44°
2026-05-05 17:52 48.97297 18.91690 27898 ft 446 kts 44°
2026-05-05 17:52 48.99519 18.95008 27410 ft 442 kts 44°
2026-05-05 17:52 49.01686 18.98248 26936 ft 437 kts 44°
2026-05-05 17:53 49.03852 19.01491 26471 ft 433 kts 44°
2026-05-05 17:53 49.05982 19.04682 26011 ft 429 kts 44°
2026-05-05 17:53 49.08125 19.07899 25551 ft 424 kts 44°
2026-05-05 17:53 49.10194 19.11008 25096 ft 421 kts 44°
2026-05-05 17:54 49.12268 19.14129 24636 ft 417 kts 44°
2026-05-05 17:54 49.14335 19.17242 24181 ft 413 kts 44°
2026-05-05 17:54 49.16369 19.20310 23729 ft 410 kts 44°
2026-05-05 17:54 49.18406 19.23385 23250 ft 407 kts 44°
2026-05-05 17:55 49.20418 19.26425 22757 ft 405 kts 44°
2026-05-05 17:55 49.22436 19.29479 22262 ft 403 kts 44°
2026-05-05 17:55 49.24439 19.32513 21777 ft 400 kts 44°
2026-05-05 17:55 49.26407 19.35498 21303 ft 398 kts 44°
2026-05-05 17:56 49.28367 19.38476 20836 ft 396 kts 44°
2026-05-05 17:56 49.30337 19.41472 20369 ft 393 kts 45°
2026-05-05 17:56 49.32291 19.44448 19906 ft 391 kts 45°
2026-05-05 17:56 49.34192 19.47347 19453 ft 389 kts 45°
2026-05-05 17:57 49.36110 19.50275 19001 ft 387 kts 45°
2026-05-05 17:57 49.37985 19.53202 18615 ft 383 kts 46°
2026-05-05 17:57 49.39828 19.56150 18193 ft 379 kts 47°
2026-05-05 17:57 49.41643 19.59066 17765 ft 376 kts 47°
2026-05-05 17:58 49.43443 19.61961 17339 ft 374 kts 47°
2026-05-05 17:58 49.45244 19.64856 16911 ft 372 kts 47°
2026-05-05 17:58 49.47001 19.67679 16491 ft 370 kts 47°
2026-05-05 17:58 49.48788 19.70552 16061 ft 368 kts 47°
2026-05-05 17:59 49.50544 19.73376 15636 ft 366 kts 47°
2026-05-05 17:59 49.52293 19.76191 15211 ft 364 kts 47°
2026-05-05 17:59 49.54025 19.78984 14788 ft 362 kts 47°
2026-05-05 17:59 49.55739 19.81746 14369 ft 355 kts 47°
2026-05-05 18:00 49.57420 19.84460 13942 ft 347 kts 47°
2026-05-05 18:00 49.59086 19.87152 13510 ft 342 kts 47°
2026-05-05 18:00 49.60712 19.89782 13085 ft 338 kts 47°
2026-05-05 18:00 49.62331 19.92405 12689 ft 334 kts 47°
2026-05-05 18:01 49.63913 19.94969 12317 ft 328 kts 47°
2026-05-05 18:01 49.65474 19.97502 11939 ft 320 kts 47°
2026-05-05 18:01 49.66975 19.99939 11566 ft 313 kts 47°
2026-05-05 18:01 49.68460 20.02353 11186 ft 308 kts 47°
2026-05-05 18:02 49.69948 20.04771 10804 ft 307 kts 47°
2026-05-05 18:02 49.71394 20.07126 10522 ft 302 kts 47°
2026-05-05 18:02 49.72832 20.09474 10251 ft 297 kts 47°
2026-05-05 18:02 49.74229 20.11752 9976 ft 292 kts 47°
2026-05-05 18:03 49.75614 20.14012 9710 ft 288 kts 47°
2026-05-05 18:03 49.76988 20.16254 9456 ft 282 kts 46°
2026-05-05 18:03 49.78537 20.18039 9167 ft 279 kts 20°
2026-05-05 18:03 49.80415 20.18459 8841 ft 273 kts 350°
2026-05-05 18:04 49.82288 20.17951 8524 ft 272 kts 345°
2026-05-05 18:04 49.84130 20.17341 8188 ft 271 kts 344°
2026-05-05 18:04 49.85992 20.16733 7834 ft 271 kts 345°
2026-05-05 18:04 49.87840 20.16156 7482 ft 270 kts 345°
2026-05-05 18:05 49.89691 20.15599 7130 ft 270 kts 345°
2026-05-05 18:05 49.91559 20.15048 6774 ft 270 kts 346°
2026-05-05 18:05 49.93383 20.14515 6426 ft 269 kts 346°
2026-05-05 18:05 49.95237 20.13978 6069 ft 269 kts 346°
2026-05-05 18:06 49.97064 20.13448 5713 ft 269 kts 346°
2026-05-05 18:06 49.98305 20.13089 5477 ft 269 kts 346°
2026-05-05 18:06 50.00751 20.12379 4989 ft 269 kts 345°
2026-05-05 18:06 50.02598 20.11842 4589 ft 271 kts 345°
2026-05-05 18:07 50.04437 20.11307 4194 ft 272 kts 345°
2026-05-05 18:07 50.06300 20.10767 3997 ft 263 kts 345°
2026-05-05 18:07 50.08058 20.10262 3987 ft 247 kts 345°
2026-05-05 18:07 50.09693 20.09732 3981 ft 238 kts 334°
2026-05-05 18:08 50.11020 20.08298 3988 ft 222 kts 300°
2026-05-05 18:08 50.11539 20.06246 4054 ft 189 kts 268°
2026-05-05 18:08 50.11425 20.04303 3887 ft 172 kts 254°
2026-05-05 18:08 50.11182 20.02544 3667 ft 162 kts 251°
2026-05-05 18:09 50.10930 20.00855 3443 ft 156 kts 251°
2026-05-05 18:09 50.10688 19.99218 3242 ft 155 kts 252°
2026-05-05 18:09 50.10448 19.97552 3038 ft 155 kts 252°
2026-05-05 18:09 50.10214 19.95899 2833 ft 154 kts 252°
2026-05-05 18:10 50.09987 19.94278 2630 ft 153 kts 253°
2026-05-05 18:10 50.09757 19.92641 2442 ft 152 kts 253°
2026-05-05 18:10 50.09532 19.91037 2249 ft 152 kts 253°
2026-05-05 18:10 50.09305 19.89429 2010 ft 151 kts 256°
2026-05-05 18:11 50.09081 19.87825 1809 ft 150 kts 256°
2026-05-05 18:11 50.08858 19.86230 1613 ft 150 kts 256°
2026-05-05 18:11 50.08636 19.84645 1420 ft 149 kts 256°
2026-05-05 18:11 50.08413 19.83053 1227 ft 149 kts 256°
2026-05-05 18:12 50.08193 19.81476 1018 ft 148 kts 256°
2026-05-05 18:12 50.07975 19.79911 836 ft 148 kts 256°
2026-05-05 18:12 50.07777 19.78534 800 ft 92 kts 256°
2026-05-05 18:12 50.07703 19.78108 800 ft 5 kts 208°
2026-05-05 18:13 50.07643 19.78096 800 ft 9 kts 182°
2026-05-05 18:13 50.07578 19.78092 800 ft 9 kts 182°
2026-05-05 18:13 50.07510 19.78090 800 ft 9 kts 171°
2026-05-05 18:13 50.07477 19.78172 800 ft 10 kts 85°
2026-05-05 18:14 50.07494 19.78284 800 ft 10 kts 77°
2026-05-05 18:14 50.07511 19.78406 800 ft 12 kts 78°
2026-05-05 18:14 50.07529 19.78547 800 ft 14 kts 78°
2026-05-05 18:14 50.07551 19.78702 800 ft 15 kts 78°
2026-05-05 18:15 50.07572 19.78859 800 ft 15 kts 78°
2026-05-05 18:15 50.07591 19.79010 800 ft 15 kts 79°
2026-05-05 18:15 50.07612 19.79159 800 ft 15 kts 77°
2026-05-05 18:15 50.07632 19.79303 800 ft 15 kts 78°
2026-05-05 18:16 50.07653 19.79456 800 ft 14 kts 78°
2026-05-05 18:16 50.07674 19.79604 800 ft 14 kts 78°
2026-05-05 18:16 50.07633 19.79701 800 ft 14 kts 167°
2026-05-05 18:16 50.07556 19.79728 800 ft 13 kts 168°
2026-05-05 18:17 50.07476 19.79754 800 ft 12 kts 168°
2026-05-05 18:17 50.07402 19.79781 800 ft 11 kts 154°
2026-05-05 18:17 50.07381 19.79868 800 ft 10 kts 82°
2026-05-05 18:17 50.07394 19.79975 800 ft 10 kts 79°
2026-05-05 18:18 50.07407 19.80076 800 ft 9 kts 78°
2026-05-05 18:18 50.07419 19.80164 800 ft 9 kts 78°
2026-05-05 18:18 50.07431 19.80251 800 ft 8 kts 78°
2026-05-05 18:18 50.07450 19.80341 800 ft 8 kts 58°
2026-05-05 18:19 50.07465 19.80411 800 ft 4 kts 97°
2026-05-05 18:19 50.07456 19.80461 800 ft 3 kts 107°
2026-05-05 18:19 50.07454 19.80472 800 ft 0 kts 107°